KQ4UWH Weather Reports


time (UTC)temp
C
wind
direction
speed
KPH
gust
KPH
rain 1hr
cm
rain 24hr
cm
rain mn
cm
humidity
%
barometer
mb
20260504205029 27 120 1.6 3.2 0.00 0.00 0.00 30 1239.7
20260504204527 26 174 3.2 4.8 0.00 0.00 0.00 33 1239.7
20260504204026 26 160 0.0 0.0 0.00 0.00 0.00 34 1239.7
20260504203523 26 164 0.0 0.0 0.00 0.00 0.00 35 1239.7
20260504203021 26 83 0.0 0.0 0.00 0.00 0.00 31 1239.7
20260504202516 26 168 0.0 1.6 0.00 0.00 0.00 31 1239.7
20260504202013 27 126 0.0 0.0 0.00 0.00 0.00 31 1239.7
20260504201510 27 116 3.2 3.2 0.00 0.00 0.00 30 1239.7
20260504201008 26 182 1.6 4.8 0.00 0.00 0.00 31 1239.7
20260504200504 26 171 1.6 1.6 0.00 0.00 0.00 29 1239.7
20260504200000 26 59 0.0 0.0 0.00 0.00 0.00 28 1239.7
20260504195456 25 139 0.0 0.0 0.00 0.00 0.00 28 1239.7
20260504194953 25 78 0.0 0.0 0.00 0.00 0.00 29 1239.7
20260504194449 25 62 1.6 1.6 0.00 0.00 0.00 30 1239.7
20260504193945 26 143 1.6 3.2 0.00 0.00 0.00 29 1239.7
20260504193443 25 141 1.6 3.2 0.00 0.00 0.00 32 1239.7
20260504192941 25 122 1.6 1.6 0.00 0.00 0.00 29 1239.7
20260504192438 25 61 0.0 1.6 0.00 0.00 0.00 30 1239.7
20260504191937 25 87 0.0 1.6 0.00 0.00 0.00 33 1239.7
20260504191435 26 129 3.2 3.2 0.00 0.00 0.00 31 1239.7
20260504190936 25 94 0.0 0.0 0.00 0.00 0.00 34 1239.7
20260504190432 25 104 0.0 0.0 0.00 0.00 0.00 36 1239.7
20260504185928 25 71 3.2 4.8 0.00 0.00 0.00 35 1239.7
20260504185426 25 197 0.0 3.2 0.00 0.00 0.00 35 1239.7
20260504184921 25 88 0.0 1.6 0.00 0.00 0.00 37 1239.7
20260504184418 25 98 0.0 0.0 0.00 0.00 0.00 35 1239.7
20260504183914 25 52 0.0 0.0 0.00 0.00 0.00 34 1239.7
20260504183411 25 59 1.6 3.2 0.00 0.00 0.00 33 1239.7
20260504182909 25 93 0.0 0.0 0.00 0.00 0.00 32 1239.7
20260504182406 25 87 0.0 0.0 0.00 0.00 0.00 33 1239.7
20260504181902 25 95 0.0 0.0 0.00 0.00 0.00 36 1239.7
20260504181400 25 118 1.6 3.2 0.00 0.00 0.00 35 1239.7
20260504180859 24 141 0.0 0.0 0.00 0.00 0.00 34 1239.7
20260504180357 24 85 1.6 1.6 0.00 0.00 0.00 37 1239.7
20260504175855 23 116 0.0 0.0 0.00 0.00 0.00 37 1239.7
20260504175351 23 153 3.2 3.2 0.00 0.00 0.00 35 1239.7
20260504174849 23 86 0.0 0.0 0.00 0.00 0.00 38 1239.7
20260504174346 23 106 0.0 0.0 0.00 0.00 0.00 37 1239.7
20260504173843 23 21 3.2 3.2 0.00 0.00 0.00 38 1239.7
20260504173340 24 198 3.2 3.2 0.00 0.00 0.00 36 1239.7
20260504172837 24 59 0.0 0.0 0.00 0.00 0.00 38 1239.7
20260504172334 23 201 3.2 3.2 0.00 0.00 0.00 37 1239.7
20260504171829 23 77 0.0 0.0 0.00 0.00 0.00 40 1239.7
20260504171327 24 92 0.0 0.0 0.00 0.00 0.00 37 1239.7
20260504170824 24 139 1.6 1.6 0.00 0.00 0.00 38 1239.7
20260504170321 23 102 0.0 1.6 0.00 0.00 0.00 39 1239.7
20260504160239 22 67 0.0 0.0 0.00 0.00 0.00 41 1239.7
20260504150704 18 131 1.6 3.2 0.00 0.00 0.00 50 1239.7
20260504150201 18 110 3.2 4.8 0.00 0.00 0.00 50 1239.7
20260504141130 15 105 0.0 1.6 0.00 0.00 0.00 60 1239.7
20260504140627 15 116 1.6 1.6 0.00 0.00 0.00 62 1239.7
20260504140123 15 93 0.0 0.0 0.00 0.00 0.00 66 1239.7
20260504130551 10 84 0.0 0.0 0.00 0.00 0.00 89 1239.7
20260504110438 6 84 0.0 0.0 0.00 0.00 0.00 97 1239.7
20260504100355 6 94 0.0 0.0 0.00 0.00 0.00 96 1239.7
20260504081748 6 93 0.0 0.0 0.00 0.00 0.00 92 1239.7
20260504081244 6 93 0.0 0.0 0.00 0.00 0.00 92 1239.7
20260504080741 6 93 0.0 0.0 0.00 0.00 0.00 91 1239.7
20260504080238 6 100 0.0 0.0 0.00 0.00 0.00 91 1239.7
20260504070205 7 90 0.0 0.0 0.00 0.00 0.00 91 1239.7
20260504060126 7 87 0.0 0.0 0.00 0.00 0.00 86 1239.7
20260504050554 8 91 0.0 0.0 0.00 0.00 0.00 82 1239.7
20260504045548 8 91 0.0 0.0 0.00 0.00 0.00 82 1239.7
20260504045043 8 92 0.0 0.0 0.00 0.00 0.00 80 1239.7
20260504044540 9 91 0.0 0.0 0.00 0.00 0.00 78 1239.7
20260504044037 9 92 0.0 0.0 0.00 0.00 0.00 77 1239.7
20260504043534 9 91 0.0 0.0 0.00 0.00 0.00 79 1239.7
20260504043032 9 91 0.0 0.0 0.00 0.00 0.00 79 1239.7
20260504042529 9 91 0.0 0.0 0.00 0.00 0.00 78 1239.7
20260504042026 10 91 0.0 0.0 0.00 0.00 0.00 79 1239.7
20260504041521 10 91 0.0 0.0 0.00 0.00 0.00 78 1239.7
20260504041017 10 90 0.0 0.0 0.00 0.00 0.00 79 1239.7
20260504040515 10 90 0.0 0.0 0.00 0.00 0.00 78 1239.7
20260504040012 9 91 0.0 0.0 0.00 0.28 0.28 78 1239.7
20260504035509 9 90 0.0 0.0 0.00 0.28 0.28 77 1239.7
20260504035005 10 90 0.0 0.0 0.00 0.28 0.28 77 1239.7
20260504034503 10 90 0.0 0.0 0.00 0.28 0.28 75 1239.7
20260504034000 10 90 0.0 0.0 0.00 0.28 0.28 75 1239.7
20260504033457 10 90 0.0 0.0 0.00 0.28 0.28 74 1239.7
20260504032955 10 108 0.0 0.0 0.00 0.28 0.28 74 1239.7
20260504032451 10 108 0.0 0.0 0.00 0.28 0.28 74 1239.7
20260504031948 10 101 0.0 0.0 0.00 0.28 0.28 73 1239.7
20260504031445 10 92 0.0 0.0 0.00 0.28 0.28 72 1239.7
20260504030941 10 102 0.0 0.0 0.00 0.28 0.28 72 1239.7
20260504030439 11 99 0.0 0.0 0.00 0.28 0.28 70 1239.7
20260504025934 11 96 0.0 0.0 0.00 0.28 0.28 70 1239.7
20260504025431 11 95 0.0 0.0 0.00 0.28 0.28 69 1239.7
20260504024929 11 97 0.0 0.0 0.00 0.28 0.28 69 1239.7
20260504024426 11 93 0.0 0.0 0.00 0.28 0.28 69 1239.7
20260504023922 11 93 0.0 0.0 0.00 0.28 0.28 71 1239.7
20260504023419 11 94 0.0 0.0 0.00 0.28 0.28 70 1239.7
20260504022914 11 94 0.0 0.0 0.00 0.28 0.28 68 1239.7
20260504022411 11 95 0.0 0.0 0.00 0.28 0.28 66 1239.7
20260504021908 11 88 0.0 0.0 0.00 0.28 0.28 67 1239.7
20260504021405 12 88 0.0 0.0 0.00 0.28 0.28 67 1239.7
20260504020903 12 88 0.0 0.0 0.00 0.28 0.28 68 1239.7
20260504020359 12 88 0.0 0.0 0.00 0.28 0.28 67 1239.7
20260504015855 12 88 0.0 0.0 0.00 0.28 0.28 67 1239.7
20260504015351 12 88 0.0 0.0 0.00 0.28 0.28 66 1239.7
20260504014847 12 88 0.0 0.0 0.00 0.28 0.28 64 1239.7
20260504014343 12 88 0.0 0.0 0.00 0.28 0.28 65 1239.7
20260504013841 13 88 0.0 0.0 0.00 0.28 0.28 65 1239.7
20260504013339 13 89 0.0 0.0 0.00 0.28 0.28 63 1239.7
20260504012835 13 89 0.0 0.0 0.00 0.28 0.28 62 1239.7
20260504012333 13 89 0.0 0.0 0.00 0.28 0.28 61 1239.7
20260504011831 13 89 0.0 0.0 0.00 0.28 0.28 62 1239.7
20260504011327 14 89 0.0 0.0 0.00 0.28 0.28 60 1239.7
20260504010823 14 89 0.0 0.0 0.00 0.28 0.28 58 1239.7
20260504010319 15 88 0.0 0.0 0.00 0.28 0.28 58 1239.7
20260504005815 15 89 0.0 0.0 0.00 0.28 0.28 55 1239.7
20260504005312 15 89 0.0 0.0 0.00 0.28 0.28 54 1239.7
20260504004810 15 83 0.0 0.0 0.00 0.28 0.28 53 1239.7
20260504004308 16 83 0.0 0.0 0.00 0.28 0.28 53 1239.7
20260504003804 16 102 0.0 0.0 0.00 0.28 0.28 47 1239.7
20260504003301 17 87 0.0 0.0 0.00 0.28 0.28 46 1239.7
20260504002757 17 90 0.0 0.0 0.00 0.28 0.28 45 1239.7
20260504002254 17 88 0.0 0.0 0.00 0.28 0.28 46 1239.7
20260504001752 17 80 0.0 0.0 0.00 0.28 0.28 44 1239.7
20260504001249 17 112 0.0 0.0 0.00 0.28 0.28 44 1239.7
20260504000746 18 97 0.0 0.0 0.00 0.28 0.28 44 1239.7
20260504000242 18 104 0.0 0.0 0.00 0.28 0.28 44 1239.7
20260503235741 18 99 0.0 0.0 0.00 0.28 0.28 43 1239.7
20260503235237 18 102 0.0 0.0 0.00 0.28 0.28 42 1239.7
20260503234735 18 101 0.0 0.0 0.00 0.28 0.28 41 1239.7
20260503234233 19 113 0.0 0.0 0.00 0.28 0.28 40 1239.7
20260503233730 19 166 1.6 1.6 0.00 0.28 0.28 39 1239.7
20260503233225 19 86 0.0 0.0 0.00 0.28 0.28 39 1239.7
20260503232723 20 79 1.6 1.6 0.00 0.28 0.28 37 1239.7
20260503232220 20 142 1.6 1.6 0.00 0.28 0.28 38 1239.7
20260503231718 20 86 0.0 0.0 0.00 0.28 0.28 40 1239.7
20260503231214 20 99 0.0 0.0 0.00 0.28 0.28 39 1239.7
20260503230711 20 94 0.0 0.0 0.00 0.28 0.28 38 1239.7
20260503230208 20 68 0.0 0.0 0.00 0.28 0.28 37 1239.7
20260503225706 20 90 0.0 0.0 0.00 0.28 0.28 36 1239.7
20260503225205 20 136 0.0 0.0 0.00 0.28 0.28 37 1239.7
20260503224703 21 182 3.2 4.8 0.00 0.28 0.28 34 1239.7
20260503224200 22 130 0.0 0.0 0.00 0.28 0.28 33 1239.7
20260503223658 23 108 0.0 0.0 0.00 0.28 0.28 34 1239.7
20260503223155 22 97 0.0 0.0 0.00 0.28 0.28 34 1239.7
20260503222652 22 112 0.0 0.0 0.00 0.28 0.28 33 1239.7
20260503222149 23 140 0.0 0.0 0.00 0.28 0.28 32 1239.7
20260503221648 23 92 0.0 0.0 0.00 0.28 0.28 33 1239.7
20260503221145 23 146 1.6 1.6 0.00 0.28 0.28 33 1239.7
20260503220641 22 189 4.8 4.8 0.00 0.28 0.28 34 1239.7
20260503220138 21 107 0.0 0.0 0.00 0.28 0.28 33 1239.7
20260503215635 22 48 1.6 1.6 0.00 0.28 0.28 32 1239.7
20260503215132 22 34 3.2 3.2 0.00 0.28 0.28 31 1239.7
20260503214631 22 90 0.0 0.0 0.00 0.28 0.28 32 1239.7
20260503214126 22 47 0.0 1.6 0.00 0.28 0.28 34 1239.7
20260503213626 22 160 1.6 1.6 0.00 0.28 0.28 33 1239.7
20260503213122 23 137 3.2 3.2 0.00 0.28 0.28 31 1239.7
20260503212619 23 121 0.0 0.0 0.00 0.28 0.28 32 1239.7
20260503212117 22 142 0.0 0.0 0.00 0.28 0.28 32 1239.7
20260503211614 23 60 0.0 0.0 0.00 0.28 0.28 32 1239.7
20260503211109 22 110 0.0 0.0 0.00 0.28 0.28 32 1239.7
20260503210606 22 236 3.2 4.8 0.00 0.28 0.28 31 1239.7
20260503205558 22 78 3.2 3.2 0.00 0.28 0.28 32 1239.7